Airfield :
LOGIN :

Register | Disclaimer

   EN    FR    IT 

 










Legend :    VFR   Marginal VFR   IFR   Intensive IFR   Very Intensive IFR
Visi :
Ceiling :
>= 8 km
>= 3000ft
5 to 8 km
1000 to 3000 ft
1500m to 5 km
500 to 1000 ft
800 to 1500m
200 to 500 ft
< 800m
< 200 ft
Symbols :   Thunderstorms  Fog  Heavy snow  Heavy precipitations  Wind > 20 kt
SIGMETs :     Misc.  Thunderstorms  Icing  Turbulence  Mountain Waves  Volcanic Ashes







- Airport Elevation : 525 ft
- IATA code : VAF
- Download approach charts


LFLU - Valence

CURRENT METAR :
  • 221800Z AUTO 36015KT 9999 FEW092 27/12 Q1012

EXPIRED METARs :
  • 221730Z AUTO 01017KT CAVOK 27/11 Q1012
  • 221700Z AUTO 36017KT CAVOK 28/11 Q1011
  • 221630Z AUTO 36018KT CAVOK 28/10 Q1011
  • 221600Z AUTO 01018KT 340V040 9999 BKN082 29/10 Q1011
  • 221530Z AUTO 36018KT CAVOK 29/10 Q1012

TAF N/A
No reported NOTAMs for that airfield.
1 SIGMET reported for the Marseille FIR (LFMM) :
 
Embedded thunderstorms
LFMM SIGMET 3 VALID 221800/222000 LFPW
LFMM MARSEILLE FIR/UIR EMBD TS OBS AT 1800Z WI N4500 E00700 - N4400 E00700 - N4400 E00715 - N4330 E00615 - N4445 E00530 - N4500 E00700 TOP FL350 STNR NC=



MET'MAP, your aeronautical weather chart ! - Copyright ORBIFLY December 2007 - Disclaimer

ORBIFLY MET'MAP TEAM :

Programming & Development : Alexandra Zaïnal
Concept & Development : Baudouin d'Aumeries
Co-Development & Prog : Marc-Olivier Méhu
Technical & hardware support : Manuel Goepfert

Contact : metmap@orbifly.com




SOURCES & CREDITS :

   NOAA